• In Deutschland
  • Länderverzeichnis
  • Für 7 Tage
  • Wassertemperatur
  • Satellitenkarten
  • Wetterkarte
  • Widgets
  • user-avatar
    Anmelden

    Stündliche Wetter Dziubiele

    Heute, 21 Oktober, Sonntag

    Zeit Temperatur Niederschläge Wind Luftdruck Luftfeuchtigkeit
    00:00 +6°C° 0 mm 1 m/S 757 mmHg 92%
    01:00 +6°C° 0 mm 1 m/S 757 mmHg 92%
    02:00 +6°C° 0 mm 1 m/S 757 mmHg 92%
    03:00 +6°C° 0 mm 1 m/S 757 mmHg 93%
    04:00 +5°C° 0 mm 1 m/S 757 mmHg 93%
    05:00 +5°C° 0 mm 1 m/S 757 mmHg 93%
    06:00 +5°C° 0 mm 1 m/S 758 mmHg 93%
    07:00 +6°C° 0 mm 1 m/S 758 mmHg 93%
    08:00 +7°C° 0 mm 1 m/S 758 mmHg 85%
    09:00 +9°C° 0 mm 1 m/S 759 mmHg 77%
    10:00 +10°C° 0 mm 2 m/S 759 mmHg 69%
    11:00 +12°C° 0 mm 2 m/S 759 mmHg 66%
    12:00 +12°C° 0 mm 2 m/S 759 mmHg 63%
    13:00 +13°C° 0 mm 2 m/S 759 mmHg 60%
    14:00 +12°C° 0 mm 1 m/S 759 mmHg 63%
    15:00 +11°C° 0 mm 1 m/S 758 mmHg 66%
    16:00 +11°C° 0 mm 1 m/S 758 mmHg 69%
    17:00 +10°C° 0 mm 1 m/S 758 mmHg 73%
    18:00 +9°C° 0 mm 1 m/S 758 mmHg 78%
    19:00 +8°C° 0 mm 1 m/S 759 mmHg 82%
    20:00 +8°C° 0 mm 1 m/S 759 mmHg 84%
    21:00 +7°C° 0 mm 1 m/S 759 mmHg 85%
    22:00 +6°C° 0 mm 2 m/S 758 mmHg 86%
    23:00 +6°C° 0 mm 2 m/S 758 mmHg 88%

    Morgen, 22 Oktober, Montag

    Zeit Temperatur Niederschläge Wind Luftdruck Luftfeuchtigkeit
    00:00 +6°C° 0 mm 2 m/S 758 mmHg 89%
    01:00 +5°C° 0 mm 2 m/S 758 mmHg 90%
    02:00 +5°C° 0 mm 2 m/S 758 mmHg 91%
    03:00 +4°C° 0 mm 3 m/S 757 mmHg 92%
    04:00 +4°C° 0 mm 3 m/S 757 mmHg 93%
    05:00 +4°C° 0 mm 3 m/S 757 mmHg 93%
    06:00 +4°C° 0 mm 3 m/S 757 mmHg 93%
    07:00 +4°C° 0 mm 3 m/S 757 mmHg 93%
    08:00 +6°C° 0 mm 4 m/S 756 mmHg 85%
    09:00 +8°C° 0 mm 4 m/S 756 mmHg 76%
    10:00 +9°C° 0 mm 5 m/S 756 mmHg 68%
    11:00 +10°C° 0 mm 5 m/S 755 mmHg 66%
    12:00 +12°C° 0 mm 5 m/S 755 mmHg 63%
    13:00 +12°C° 0 mm 5 m/S 754 mmHg 61%
    14:00 +10°C° 0.2 mm 5 m/S 754 mmHg 67%
    15:00 +10°C° 0.2 mm 5 m/S 754 mmHg 74%
    16:00 +10°C° 0.2 mm 4 m/S 753 mmHg 80%
    17:00 +8°C° 0.3 mm 4 m/S 753 mmHg 82%
    18:00 +8°C° 0.3 mm 4 m/S 754 mmHg 84%
    19:00 +8°C° 0.3 mm 4 m/S 754 mmHg 85%
    20:00 +7°C° 0 mm 4 m/S 754 mmHg 85%
    21:00 +6°C° 0 mm 4 m/S 754 mmHg 86%
    22:00 +5°C° 0 mm 3 m/S 754 mmHg 86%
    23:00 +5°C° 0 mm 3 m/S 754 mmHg 86%

    übermorgen, 23 Oktober, Dienstag

    Zeit Temperatur Niederschläge Wind Luftdruck Luftfeuchtigkeit
    00:00 +4°C° 0 mm 3 m/S 754 mmHg 85%
    01:00 +3°C° 0 mm 3 m/S 754 mmHg 85%
    02:00 +3°C° 0 mm 3 m/S 753 mmHg 85%
    03:00 +3°C° 0 mm 3 m/S 753 mmHg 85%
    04:00 +3°C° 0 mm 3 m/S 752 mmHg 86%
    05:00 +3°C° 0 mm 4 m/S 752 mmHg 86%
    06:00 +3°C° 0 mm 4 m/S 751 mmHg 86%
    07:00 +4°C° 0 mm 4 m/S 751 mmHg 86%
    08:00 +5°C° 0 mm 5 m/S 750 mmHg 81%
    09:00 +5°C° 0 mm 6 m/S 749 mmHg 75%
    10:00 +6°C° 0 mm 7 m/S 748 mmHg 70%
    11:00 +6°C° 0.4 mm 8 m/S 746 mmHg 71%
    12:00 +5°C° 0.4 mm 9 m/S 745 mmHg 73%
    13:00 +5°C° 0.4 mm 9 m/S 743 mmHg 74%
    14:00 +5°C° 1.5 mm 10 m/S 741 mmHg 77%
    15:00 +5°C° 1.5 mm 10 m/S 739 mmHg 79%
    16:00 +3°C° 1.5 mm 10 m/S 737 mmHg 81%
    17:00 +5°C° 1.5 mm 10 m/S 736 mmHg 83%
    18:00 +5°C° 1.5 mm 10 m/S 734 mmHg 84%
    19:00 +6°C° 1.5 mm 10 m/S 732 mmHg 86%
    20:00 +6°C° 1.1 mm 9 m/S 731 mmHg 85%
    21:00 +6°C° 1.1 mm 8 m/S 731 mmHg 84%
    22:00 +8°C° 1.1 mm 7 m/S 730 mmHg 83%
    23:00 +6°C° 0.5 mm 7 m/S 730 mmHg 82%

    24 Oktober, Mittwoch

    Zeit Temperatur Niederschläge Wind Luftdruck Luftfeuchtigkeit
    00:00 +6°C° 0.5 mm 8 m/S 730 mmHg 81%
    01:00 +6°C° 0.5 mm 8 m/S 731 mmHg 80%
    02:00 +5°C° 0.2 mm 8 m/S 732 mmHg 77%
    03:00 +4°C° 0.2 mm 7 m/S 732 mmHg 74%
    04:00 +3°C° 0.2 mm 7 m/S 733 mmHg 72%
    05:00 +3°C° 0.1 mm 7 m/S 733 mmHg 70%
    06:00 +2°C° 0.1 mm 7 m/S 734 mmHg 69%
    07:00 +2°C° 0.1 mm 7 m/S 735 mmHg 68%
    08:00 +2°C° 0.1 mm 8 m/S 735 mmHg 66%
    09:00 +2°C° 0.1 mm 9 m/S 735 mmHg 64%
    10:00 +3°C° 0.1 mm 10 m/S 735 mmHg 62%
    11:00 +3°C° 0.1 mm 11 m/S 735 mmHg 62%
    12:00 +4°C° 0.1 mm 11 m/S 735 mmHg 61%
    13:00 +4°C° 0.1 mm 12 m/S 735 mmHg 61%
    14:00 +4°C° 0.2 mm 12 m/S 736 mmHg 63%
    15:00 +3°C° 0.2 mm 11 m/S 736 mmHg 65%
    16:00 +3°C° 0.2 mm 11 m/S 737 mmHg 67%
    17:00 +3°C° 0.4 mm 11 m/S 737 mmHg 68%
    18:00 +3°C° 0.4 mm 11 m/S 738 mmHg 68%
    19:00 +3°C° 0.4 mm 11 m/S 738 mmHg 69%
    20:00 +3°C° 0.2 mm 10 m/S 739 mmHg 70%
    21:00 +3°C° 0.2 mm 10 m/S 739 mmHg 71%
    22:00 +3°C° 0.2 mm 9 m/S 740 mmHg 71%
    23:00 +4°C° 0.1 mm 8 m/S 740 mmHg 72%

    25 Oktober, Donnerstag

    Zeit Temperatur Niederschläge Wind Luftdruck Luftfeuchtigkeit
    00:00 +4°C° 0.1 mm 8 m/S 740 mmHg 73%
    01:00 +3°C° 0.1 mm 7 m/S 741 mmHg 74%
    02:00 +3°C° 0 mm 7 m/S 741 mmHg 76%
    03:00 +3°C° 0 mm 6 m/S 741 mmHg 77%
    04:00 +2°C° 0 mm 6 m/S 741 mmHg 79%
    05:00 +2°C° 0 mm 5 m/S 741 mmHg 79%
    06:00 +2°C° 0 mm 5 m/S 741 mmHg 79%
    07:00 +2°C° 0 mm 5 m/S 741 mmHg 79%
    08:00 +3°C° 0 mm 5 m/S 741 mmHg 74%
    09:00 +5°C° 0 mm 5 m/S 741 mmHg 69%
    10:00 +6°C° 0 mm 5 m/S 741 mmHg 64%
    11:00 +6°C° 0.1 mm 5 m/S 740 mmHg 67%
    12:00 +5°C° 0.1 mm 4 m/S 740 mmHg 70%
    13:00 +5°C° 0.1 mm 4 m/S 739 mmHg 72%
    14:00 +5°C° 0 mm 3 m/S 739 mmHg 76%
    15:00 +5°C° 0 mm 3 m/S 739 mmHg 80%
    16:00 +5°C° 0 mm 3 m/S 739 mmHg 84%
    17:00 +5°C° 0 mm 3 m/S 739 mmHg 87%
    18:00 +5°C° 0 mm 3 m/S 740 mmHg 89%
    19:00 +4°C° 0 mm 3 m/S 740 mmHg 92%
    20:00 +4°C° 0 mm 3 m/S 740 mmHg 93%
    21:00 +4°C° 0 mm 3 m/S 740 mmHg 93%
    22:00 +4°C° 0 mm 3 m/S 740 mmHg 94%
    23:00 +4°C° 0 mm 3 m/S 740 mmHg 93%

    26 Oktober, Freitag

    Zeit Temperatur Niederschläge Wind Luftdruck Luftfeuchtigkeit
    00:00 +4°C° 0 mm 3 m/S 740 mmHg 92%
    01:00 +4°C° 0 mm 3 m/S 740 mmHg 91%
    02:00 +4°C° 0 mm 3 m/S 740 mmHg 90%
    03:00 +4°C° 0 mm 4 m/S 740 mmHg 90%
    04:00 +4°C° 0 mm 4 m/S 740 mmHg 89%
    05:00 +5°C° 0 mm 4 m/S 740 mmHg 90%
    06:00 +6°C° 0 mm 4 m/S 740 mmHg 91%
    07:00 +6°C° 0 mm 4 m/S 740 mmHg 93%
    08:00 +7°C° 0.1 mm 4 m/S 740 mmHg 87%
    09:00 +9°C° 0.1 mm 5 m/S 740 mmHg 81%
    10:00 +10°C° 0.1 mm 6 m/S 740 mmHg 75%
    11:00 +10°C° 0.1 mm 5 m/S 740 mmHg 77%
    12:00 +9°C° 0.1 mm 5 m/S 740 mmHg 79%
    13:00 +9°C° 0.1 mm 5 m/S 740 mmHg 81%
    14:00 +9°C° 0.4 mm 5 m/S 740 mmHg 83%
    15:00 +9°C° 0.4 mm 5 m/S 740 mmHg 84%
    16:00 +8°C° 0.4 mm 5 m/S 740 mmHg 86%
    17:00 +8°C° 0.1 mm 5 m/S 740 mmHg 86%
    18:00 +8°C° 0.1 mm 5 m/S 739 mmHg 85%
    19:00 +8°C° 0.1 mm 5 m/S 739 mmHg 85%
    20:00 +7°C° 0.1 mm 5 m/S 739 mmHg 85%
    21:00 +7°C° 0.1 mm 5 m/S 739 mmHg 86%
    22:00 +7°C° 0.1 mm 5 m/S 739 mmHg 86%
    23:00 +7°C° 0 mm 5 m/S 739 mmHg 87%
    Mehr zeigen